Zurück zum Katalog

COSMOS 860 COOLANT

AktivLEO
NORAD 29196·DEBRIS·🇷🇺 Russia

Gestartet Oct 17, 1976 von Baikonur Cosmodrome

Loading…

Nächste Überflüge (nächste 24 Stunden)

TLE

AlterndSource: Space-Track

Epoche: Sep 8, 2026, 22:35 UTC

1 29196U 76103J   26251.94149875  .00000098  00000-0  15920-3 0  9994
2 29196  64.6974 137.5978 0052817 179.0131 196.8537 13.87428556666703

Verfolge COSMOS 860 COOLANT in Echtzeit mit AllMySat

Download on the App Store